Location: B�n�vent
(46.1184°N, 1.6267°E)
Time: 14:19:04
(UTC+00:00)

Daily predictions for brighter satellites

Satellite Brightness Start Highest point End
(mag) Time Altitude Azimuth Time Altitude Azimuth Time Altitude Azimuth
H-2A R/B 2.3 18:03:06 10° SSE 18:08:24 55° ENE 18:13:43 10° N
CZ-2C R/B 3.6 18:03:56 10° NE 18:08:24 25° E 18:12:46 10° SSE
USA 305 4.2 18:05:43 10° W 18:09:39 34° NNW 18:13:34 10° NE
IRS-1C Rocket 4.1 18:06:57 10° SSE 18:12:11 71° ENE 18:17:28 10° N
Gbstr 26 Del rocket 3.7 18:08:11 10° W 18:12:22 53° NNW 18:17:28 10° ENE
Meteor 1-20 Rocket 4.1 18:09:07 10° S 18:14:30 66° E 18:19:57 10° NNE
Cosmos 1302 Rocket 4.1 18:09:34 10° SSW 18:14:45 89° WNW 18:20:01 10° NNE
SL-4 R/B 2.8 18:11:50 10° WNW 18:15:08 32° N 18:18:17 10° ENE
CSL-04 DEB 4.4 18:15:14 10° NNE 18:19:12 88° W 18:23:13 10° SSW
USA 307 4.2 18:17:06 10° WNW 18:21:00 33° NNW 18:24:53 10° NE
FALCON 9 DEB 3.8 18:19:56 10° NW 18:23:12 40° NNE 18:26:13 11° E
ATLAS CENTAUR R/B 2.2 18:20:21 10° S 18:23:21 25° ESE 18:26:21 10° ENE
USA 306 4.3 18:20:35 10° WNW 18:24:26 32° NNW 18:28:17 10° NE
Cosmos 1354 Rocket 4.5 18:21:06 10° N 18:26:03 40° ENE 18:30:57 10° SE
Cosmos 44 Rocket 3.4 18:22:02 10° NW 18:27:19 79° NE 18:32:31 10° SE
Okean-O 2.6 18:23:45 10° SSE 18:28:08 69° ENE 18:32:33 10° N
ERS-2 2.5 18:24:58 10° NNE 18:28:27 41° E 18:31:55 10° S
CSL-04 Rocket 4.0 18:24:17 10° SE 18:29:35 48° ENE 18:34:52 10° N
Cosmos 1844 Rocket 3.1 18:24:22 10° NNW 18:29:40 41° NE 18:34:54 10° SE
Cosmos 2084 Rocket 3.6 18:25:23 10° NW 18:29:41 62° NE 18:34:08 10° SE
SAR-Lupe-1 4.4 18:27:09 10° NNE 18:30:36 41° E 18:34:01 10° S
CSL-04 Debris 4.3 18:25:40 10° SE 18:30:55 52° ENE 18:36:14 10° N
USA 308 4.3 18:27:48 10° WNW 18:31:39 31° N 18:35:29 10° NE
Cosmos 1666 4.1 18:31:06 10° SE 18:33:37 17° E 18:36:07 10° NE
Cosmos 1271 Rocket 3.7 18:30:35 10° NNW 18:34:12 50° W 18:37:50 10° S
HJ-1C 3.4 18:32:49 10° SSE 18:36:04 53° ENE 18:39:19 10° N
Cosmos 1503 Rocket 4.1 18:31:15 10° NNW 18:36:22 54° ENE 18:41:25 10° SE
H-2A R/B 4.3 18:33:45 10° N 18:37:11 26° WNW 18:40:38 10° WSW
Cosmos 2341 Rocket 4.5 18:31:49 10° SSE 18:37:30 37° E 18:43:10 10° NNE
PSLV R/B 3.8 18:35:30 10° NNE 18:39:36 74° ESE 18:43:39 10° S
Cosmos 1470 Rocket 3.6 18:37:01 10° S 18:41:25 63° E 18:45:49 10° NNE
Cosmos 1844 4.1 18:35:58 10° NNW 18:41:29 43° NE 18:46:54 10° SE
CZ-4B R/B 3.1 18:40:44 10° N 18:43:31 33° WNW 18:46:20 10° SW
Cosmos 2360 Rocket 2.4 18:38:24 10° S 18:43:47 48° ESE 18:49:14 10° NE
Cosmos 1602 3.9 18:41:11 10° SSW 18:45:04 75° W 18:49:01 10° N
Ariane Rocket 4.1 18:42:04 14° ESE 18:45:12 24° ENE 18:49:11 10° N
Cosmos 2278 Rocket 3.9 18:43:05 10° N 18:46:21 15° NE 18:48:36 13° ENE
Meteor 1-19 Rocket 4.4 18:43:22 10° NNW 18:49:22 88° WSW 18:55:08 10° S
Cosmos 1500 3.1 18:48:28 10° S 18:52:08 59° E 18:55:50 10° NNE
Meteor 2-4 Rocket 3.8 18:48:08 10° N 18:53:55 62° ENE 18:59:47 10° SSE
Cosmos 2333 Rocket 3.1 18:49:30 10° SSE 18:54:06 26° ESE 18:58:45 10° NE
Cosmos 1703 Rocket 3.9 18:49:56 10° N 18:54:09 43° ENE 18:58:18 10° SSE
DMSP B5D1-3 4.5 18:49:32 10° NNE 18:54:43 82° ESE 18:59:53 10° SSW
SL-08 RB Rocket 3.6 18:52:14 10° SSE 18:56:43 71° ENE 19:01:17 10° N
Cosmos 1689 Rocket 2.2 18:54:05 10° N 18:56:57 72° WNW 18:59:50 10° SSW
Meteor 2-12 Rocket 4.4 18:51:31 10° S 18:57:34 80° E 19:03:41 10° N
ERBS 4.2 18:56:41 10° W 18:59:30 25° NNW 19:02:18 10° NNE
Cosmos 1980 Rocket 4.5 18:55:55 10° W 19:00:22 23° NW 19:04:50 10° N
Cosmos 1933 Rocket 3.4 18:58:00 10° S 19:02:19 69° E 19:06:42 10° NNE
BREEZE-M DEB (TANK) 4.4 19:02:23 10° S 19:03:36 17° SSE 19:03:36 17° SSE
Aureole 2 Rocket 2.3 19:02:22 10° NNW 19:04:51 53° WSW 19:06:51 14° S
Resurs 01 Rocket 3.4 19:12:40 16° NE 19:12:40 16° NE 19:14:42 10° NNE
Cosmos 2242 Rocket 3.5 19:07:44 10° N 19:12:16 76° E 19:16:43 10° SSE
Cosmos 2322 Rocket 2.7 19:08:14 10° SW 19:13:46 60° WNW 19:19:21 10° NNE
Lacrosse 4 Rocket 2.8 19:12:10 10° SSE 19:14:29 23° SE 19:14:29 23° SE
Abrixas rocket 2.1 19:13:42 10° WNW 19:16:07 45° N 19:16:07 45° N
SME Rocket 4.3 19:10:58 10° NNE 19:18:43 48° E 19:23:49 10° S
Helios 1A Rocket 3.7 19:15:12 10° S 19:19:09 53° W 19:23:08 10° NNW
YAOGAN 1 4.4 19:16:07 10° SSW 19:20:02 33° W 19:23:57 10° NNW
SJ-6B 2.9 19:22:30 34° SE 19:23:59 56° ENE 19:27:58 10° N
COSMOS 2428 3.3 19:19:03 10° SSE 19:24:04 33° ESE 19:24:51 32° E
ASTEX 1 3.6 19:23:04 10° NNE 19:27:47 46° E 19:30:11 26° SSE
GP-B 3.3 19:23:38 10° S 19:28:03 71° W 19:32:30 10° N
MOS 1 4.4 19:25:33 24° SE 19:28:53 55° ENE 19:34:25 10° N
Cosmos 2219 Rocket 2.4 19:25:42 10° S 19:30:57 44° ESE 19:36:15 10° NE
Meteor 1-11 Rocket 3.8 19:25:51 10° S 19:31:22 53° E 19:36:50 10° NNE
MetOp-A 4.0 19:27:37 10° SSE 19:32:58 86° ENE 19:38:22 10° NNW
OBJECT-B 1.8 19:36:24 35° N 19:36:24 35° N 19:38:27 10° N
Resurs 1-3 4.0 19:38:47 44° ENE 19:38:47 44° ENE 19:42:42 10° N
SL-16 R/B 3.8 19:33:33 10° WSW 19:38:40 34° NW 19:43:50 10° NNE
SJ 16-02 2.6 19:36:47 10° N 19:39:35 26° NE 19:39:35 26° NE
SeaSat 1 3.0 19:36:23 10° NNE 19:41:14 58° WNW 19:46:04 10° SW
Okean 1-7 3.4 19:37:04 10° NNW 19:41:24 64° W 19:45:40 10° S
Cosmos 1066 Rocket 4.2 19:37:58 10° N 19:43:39 61° ENE 19:45:41 39° SE
CZ-4 R/B 4.5 19:41:32 10° SW 19:43:39 14° W 19:45:48 10° WNW
Meteor 1-13 Rocket 4.2 19:38:06 10° N 19:44:05 84° E 19:48:31 18° SSE
USA 234 3.1 19:39:53 22° ENE 19:44:21 75° SE 19:50:53 10° SW
CZ-2C R/B 3.6 19:43:40 10° N 19:48:57 50° WNW 19:54:06 10° SW
IRS-1A Rocket 4.1 19:46:43 28° SSE 19:49:50 82° ENE 19:55:25 10° NNW
USA 305 4.2 19:46:42 10° NW 19:50:28 29° N 19:50:56 28° NNE
BREEZE-M DEB (TANK) 2.7 19:48:04 10° WNW 19:50:46 57° NNE 19:51:09 54° NE
Cosmos 2322 3.6 19:45:11 10° SSW 19:50:54 80° ESE 19:56:39 10° NNE
DMSP B5D2-2 4.4 19:49:39 10° N 19:54:50 65° WNW 19:59:58 10° SSW
USA 186 4.4 19:56:42 13° NW 19:56:42 13° NW 19:57:07 10° NW
SL-4 R/B 2.5 19:51:37 10° WNW 19:54:12 44° NW 19:54:12 44° NW
Cosmos 1869 Rocket 3.6 19:52:17 10° SSW 19:56:37 76° W 20:01:03 10° N
SL-8 Rocket 4.2 19:52:50 10° SSW 19:59:04 73° W 20:05:18 10° N
Gbstr 26 Del rocket 4.1 19:55:23 10° WNW 20:00:00 47° N 20:00:59 42° NE
USA 307 4.2 19:58:03 10° NW 20:01:49 30° N 20:01:49 30° N
ATLAS CENTAUR R/B 2.7 19:58:48 10° WSW 20:02:05 31° NW 20:03:10 26° N
USA 306 4.2 20:01:27 10° NW 20:05:03 30° N 20:05:03 30° N
Cosmos 1666 4.3 20:05:30 10° SW 20:08:54 33° WNW 20:12:19 10° N
USA 308 4.3 20:08:41 10° NW 20:11:59 30° N 20:11:59 30° N
Cosmos 1844 Rocket 4.2 20:08:29 10° NW 20:13:26 33° WSW 20:17:55 12° SSW
Cosmos 2366 rocket 4.2 20:07:51 10° SSW 20:14:07 70° W 20:20:30 10° N
SL-08 R/B 4.4 20:11:58 33° S 20:15:07 77° E 20:21:37 10° N
SPOT 3 Rocket 3.7 20:18:37 60° NNE 20:18:37 60° NNE 20:23:02 10° N
Okean 3 4.3 20:15:27 10° NNW 20:19:31 49° W 20:19:31 49° W
Ariane Rocket 3.7 20:22:15 38° SSW 20:23:49 52° W 20:28:49 10° NNW
Cosmos 2360 Rocket 3.9 20:23:01 10° WSW 20:28:00 31° NW 20:33:02 10° N
Cosmos 2278 Rocket 2.6 20:25:53 10° NNW 20:30:28 55° N 20:30:28 55° N
Cosmos 1727 Rocket 4.3 20:30:01 10° NNW 20:36:07 64° W 20:37:44 47° SSW
Cosmos 2333 Rocket 2.9 20:32:28 10° SW 20:38:01 53° WNW 20:43:39 10° NNE
Cosmos 1821 Rocket 4.4 20:41:55 50° NNE 20:41:55 50° NNE 20:46:22 10° N
Resurs 01 Rocket 3.5 20:50:14 26° NNW 20:50:14 26° NNW 20:52:17 10° NNW
Cosmos 1943 Rocket 4.2 20:46:12 10° N 20:48:24 18° NNE 20:48:24 18° NNE
Lacrosse 4 Rocket 4.1 20:50:14 10° WSW 20:50:57 14° WSW 20:50:57 14° WSW
COSMOS 2428 3.8 21:02:48 10° SW 21:14:01 - NNE 21:07:14 40° W
Cosmos 2219 Rocket 3.7 21:10:01 10° WSW 21:15:02 33° NW 21:20:06 10° NNE
SJ 16-02 4.0 21:15:20 10° NW 21:16:35 17° NW 21:16:35 17° NW
USA 234 4.0 21:27:15 48° NNW 21:27:15 48° NNW 21:33:21 10° W
